map of TLS home
TLS - Airport
Location
City:  Toulouse, Midi-Pyrénées, France
Name:Blagnac
ICAO:LFBO
IATA:TLS

Details
Type:Airport (Aerodrome, Airfield)
Use:Public/Civil, International (customs port of entry)
Latitude:43°38'06"N (43.635000)
Longitude:1°22'04"E (1.367778)
Elevation:499 ft (152 m)
Variation:0.68°E (WMM2015 magnetic declination)
0.12° annual change
Runways:2
Longest:11483 × 148 ft (3500 × 45 m), paved

Time
Time Zone:UTC+1 (DST+2)
Local Time:

Weather
METAR:LFBO 152300Z AUTO 36003KT 9999 BKN034 14/13 Q1013 NOSIG
TAF:LFBO 152300Z 1600/1706 VRB02KT CAVOK
TEMPO 1600/1605 4000 BR BKN010 PROB30
TEMPO 1605/1610 -RA BKN012 PROB30
TEMPO 1613/1616 -SHRA SCT020TCU
BECMG 1621/1624 BKN008

Related Locations
Nearby:
Farthest:CHT: 12331 mi / 19845 km
Waitangi [Tuuta], CIT, NZ

Find:

   beyond  
but within

Other Information
Maps:
NOTAMs:
Links:
Sources:

  
  • flag of France
  • flag of Midi-Pyrénées
  • flag of Toulouse
  

Sectional Chart

Flight Planning
at skyvector.com

Satellite Image

Google Maps Satellite view

 

Copyright © 2004-2018 Karl L. Swartz. All rights reserved.
The Great Circle Mapper name and logo are trademarks of the Great Circle Mapper.
All other trademarks mentioned herein belong to their respective owners.
Please see credits for attibutions and further copyright information.

  Follow gcmap on Facebook Follow gcmap on Twitter Follow gcmap on Google+ GCmap on LinkedIn

hCard Microformat

Geo Microformat